[Date Prev][Date Next][Thread Prev][Thread Next] - [Date Index][Thread Index][Author Index]

2 Line ISS Keps 5-10



ISS
1 25544U 98067A   04131.45379014  .00009030  00000-0  80376-4 0  7495
2 25544  51.6264 158.0479 0011069 118.8480  34.1332 15.69302599312390


----
Via the sarex mailing list at AMSAT.ORG courtesy of AMSAT-NA.
To unsubscribe, send "unsubscribe sarex" to Majordomo@amsat.org



AMSAT Top AMSAT Home